Find NNS 30320-48

NORAD ID: 19071 Int'l Des: 1988-033 Owner: NAVAIR Country: US operational
LEORETROGRADE

Current View

Loading 3D Globe...

About NNS 30320-48

Description loading...

Upcoming Passes

Passes for default location (London). Set your location on the main map for personalized predictions.

Altitude History

Loading altitude history...

Two-Line Element Set

1 19071U 88033B 26150.07499308 .00000085 00000-0 15114-3 0 9992
2 19071 90.3300 21.8549 0189577 59.2540 108.5485 13.27978167844992
Epoch: May 30, 2026 • Age: 12 hours

Current Status

Altitude 1131.3 km
Velocity 7.31 km/s
Sub-Earth Point 43.16°N, 99.69°E
Launch Date Apr 26, 1988
Age 38 years
Type other

Technical Details

Classification Payload
Mass 64.00 kg
Dry Mass 64.00 kg
Total Mass 64.00 kg
Length 0.30 m
Diameter 0.50 m
Span 30.00 m
Shape Oct Cyl + 4 Pan + Ant
Manufacturer GEEW
Bus Type Transit 5
Phase Status In Orbit
Owner/State NAVAIR/US

Most Searched